Torna al catalogo

SUPERVIEW NEO-3 01

AttivoScienzaSSO
NORAD 59510·PAYLOAD·🇨🇳 China

Lanciato Apr 15, 2024 da Jiuquan Satellite Launch Center

Loading…

Prossimi Passaggi (prossime 24 ore)

TLE

AggiornatoSource: Space-Track

Epoca: Sep 14, 2026, 15:38 UTC

1 59510U 24072A   26257.65206619  .00006301  00000-0  27903-3 0  9996
2 59510  97.4082 336.4484 0002519 124.1448 236.0028 15.21993241134315

Traccia SUPERVIEW NEO-3 01 in tempo reale con AllMySat

Download on the App Store